Home   Weather   Dąbrowa Górnicza   Past weeks

Flag for Poland Past Weather in Dąbrowa Górnicza, Poland — Yesterday and Last 2 Weeks

Now
79 °F

Passing clouds.


Feels Like: 80 °F
Forecast: 59 / 74 °F
Wind: 6 mph from North

Location: Katowice Airport

Current Time: May 30, 2017 at 3:13:36 pm

Latest Report: May 30, 2017 at 2:30 pm


Visibility: N/A

Pressure: 29.89 "Hg

Humidity: 58%

Dew Point: 63 °F

Location of Dąbrowa GórniczaLocation

Past Weather in Dąbrowa Górnicza — Graph

°F

Dąbrowa Górnicza Temperature Yesterday

Maximum temperature yesterday: 81 °F (at 3:30 pm)
Minimum temperature yesterday: 59 °F (at 3:30 am)
Average temperature yesterday: 69 °F

High & Low Weather Summary for the Past Weeks

 TemperatureHumidityPressure
High84 °F (May 30, 1:00 pm)100% (May 15, 8:30 pm)30.39 "Hg (May 15, 8:30 pm)
Low39 °F (May 17, 4:00 am)31% (May 18, 4:00 pm)29.86 "Hg (May 19, 5:30 pm)
Average60 °F70%30.10 "Hg
* Reported May 15 2:00 pm — May 30 2:00 pm, Dąbrowa Górnicza. Weather by CustomWeather, © 2017

Note: Actual official high and low records may vary slightly from our data, if they occured in-between our weather recording intervals... More about our weather records

Advertising

Dąbrowa Górnicza Weather History for the Previous 24 Hours

Scroll right to see more
 ConditionsComfort  
Time TempWeatherWind HumidityBarometerVisibility
2:00 pm
Tue, May 30
73 °FSprinkles. Scattered clouds.14 mph69%29.92 "HgN/A
1:30 pm84 °FPassing clouds.10 mph43%29.92 "HgN/A
1:00 pm84 °FPassing clouds.10 mph43%29.92 "HgN/A
12:30 pm82 °FPassing clouds.9 mph45%29.92 "HgN/A
12:00 pm82 °FPassing clouds.8 mph42%29.92 "HgN/A
11:30 am81 °FPassing clouds.9 mph48%29.92 "HgN/A
11:00 am79 °FPassing clouds.10 mph51%29.92 "HgN/A
10:30 am77 °FPassing clouds.8 mph54%29.92 "HgN/A
10:00 am75 °FPassing clouds.10 mph57%29.92 "HgN/A
9:30 am73 °FSunny.9 mph61%29.92 "Hg10 mi
9:00 am73 °FSunny.8 mph61%29.92 "Hg10 mi
8:30 am72 °FSunny.8 mph61%29.92 "Hg10 mi
8:00 am68 °FSunny.7 mph69%29.92 "Hg10 mi
7:30 am66 °FSunny.8 mph68%29.92 "Hg10 mi
7:00 am66 °FSunny.6 mph68%29.92 "Hg10 mi
6:30 am64 °FSunny.7 mph73%29.92 "Hg10 mi
6:00 am64 °FSunny.8 mph73%29.92 "Hg10 mi
5:30 am63 °FSunny.7 mph77%29.92 "Hg10 mi
5:00 am63 °FSunny.5 mph77%29.92 "Hg10 mi
4:30 am63 °FClear.6 mph77%29.92 "Hg10 mi
4:00 am61 °FClear.5 mph88%29.92 "Hg10 mi
3:30 am61 °FClear.7 mph83%29.92 "Hg10 mi
3:00 am63 °FClear.6 mph83%29.92 "Hg10 mi
2:30 am64 °FClear.6 mph78%29.92 "Hg10 mi
2:00 am64 °FClear.6 mph78%29.92 "Hg10 mi
1:30 am64 °FPassing clouds.3 mph78%29.92 "HgN/A
1:00 am64 °FClear.6 mph78%29.92 "Hg10 mi
12:30 am64 °FClear.6 mph83%29.92 "Hg10 mi
12:00 am64 °FClear.6 mph78%29.92 "Hg10 mi
11:30 pm
Mon, May 29
64 °FClear.7 mph78%29.92 "Hg10 mi
10:30 pm66 °FPassing clouds.6 mph68%29.95 "HgN/A
10:00 pm68 °FPassing clouds.3 mph64%29.95 "HgN/A
9:30 pm66 °FPassing clouds.6 mph68%29.95 "HgN/A
9:00 pm68 °FClear.9 mph64%29.95 "Hg10 mi
8:30 pm73 °FSunny.8 mph50%29.92 "Hg10 mi
8:00 pm73 °FSunny.8 mph50%29.92 "Hg10 mi
7:30 pm75 °FSunny.9 mph47%29.92 "Hg10 mi
7:00 pm77 °FSunny.10 mph44%29.92 "Hg10 mi
6:30 pm79 °FSunny.10 mph42%29.92 "Hg10 mi
6:00 pm79 °FSunny.13 mph39%29.92 "Hg10 mi
5:30 pm79 °FSunny.14 mph39%29.95 "Hg10 mi
5:00 pm81 °FSunny.13 mph37%29.95 "Hg10 mi
4:30 pm79 °FSunny.15 mph39%29.95 "Hg10 mi
4:00 pm79 °FSunny.10 mph39%29.95 "Hg10 mi
3:30 pm81 °FSunny.14 mph34%29.98 "Hg10 mi
3:00 pm79 °FSunny.14 mph37%29.98 "Hg10 mi
Weather by CustomWeather, © 2017

See weather overviewHow to use our weather pages